Location: Unspecified
(0.0000°N, 0.0000°E)
Time: 17:22:38
(UTC+00:00)

A-11 Canister half - All Passes

Search period start: 23 September 2019 00:00
Search period end: 03 October 2019 00:00
Orbit: 1527 x 1682 km, 47.3° (Epoch: 22 September)

Date Brightness Start Highest point End Pass type
(mag) Time Alt. Az. Time Alt. Az. Time Alt. Az.
23 Sep - 01:00:39 10° WSW 01:09:32 49° NW 01:18:26 10° NNE night (unlit)
23 Sep - 09:45:57 10° NNE 09:50:43 14° NE 09:55:29 10° ENE daylight
23 Sep - 11:46:07 10° NW 11:56:11 75° NE 12:06:19 10° SE daylight
23 Sep - 13:53:45 10° W 14:01:20 24° SW 14:08:57 10° S daylight
23 Sep - 22:35:03 10° S 22:43:07 32° SE 22:51:03 10° ENE night (unlit)
24 Sep - 00:38:55 10° SW 00:47:55 53° NW 00:56:54 10° NNE night (unlit)
24 Sep - 09:24:59 10° NNE 09:28:59 13° NE 09:32:59 10° ENE daylight
24 Sep - 11:24:31 10° NNW 11:34:31 71° NE 11:44:38 10° SE daylight
24 Sep - 13:31:46 10° W 13:39:39 26° SW 13:47:34 10° S daylight
24 Sep - 22:13:38 10° S 22:21:29 29° SE 22:29:12 10° ENE night (unlit)
25 Sep - 00:17:13 10° SW 00:26:19 57° NW 00:35:22 10° NNE night (unlit)
25 Sep - 09:04:16 10° NNE 09:07:15 11° NE 09:10:14 10° ENE daylight
25 Sep - 11:02:56 10° NNW 11:12:52 66° NE 11:22:55 10° SE daylight
25 Sep - 13:09:50 10° WNW 13:17:58 28° SW 13:26:10 10° S daylight
25 Sep - 21:52:13 10° S 21:59:50 27° SE 22:07:19 10° ENE visible
25 Sep - 23:55:31 10° SW 00:04:42 61° NW 00:13:49 10° NNE night (unlit)
26 Sep - 08:44:17 10° NE 08:45:31 10° NE 08:46:45 10° NE daylight
26 Sep - 10:41:22 10° NNW 10:51:13 62° NE 11:01:12 10° SE daylight
26 Sep - 12:47:53 10° WNW 12:56:17 30° SW 13:04:45 10° S daylight
26 Sep - 21:30:48 10° S 21:38:11 25° SE 21:45:26 10° E visible
26 Sep - 23:33:50 10° SW 23:43:05 66° NW 23:52:17 10° NNE night (unlit)
27 Sep - 01:47:29 10° NW 01:48:32 10° NW 01:49:35 10° NW night (unlit)
27 Sep - 10:19:48 10° NNW 10:29:34 58° NE 10:39:28 10° SE daylight
27 Sep - 12:26:00 10° WNW 12:34:36 32° SW 12:43:18 10° S daylight
27 Sep - 21:09:26 10° S 21:16:32 23° SE 21:23:30 10° E visible
27 Sep - 23:12:09 10° SW 23:21:30 70° NW 23:30:44 10° NNE night (unlit)
28 Sep - 01:24:07 10° WNW 01:26:50 11° NW 01:29:34 10° NNW night (unlit)
28 Sep - 09:58:16 10° NNW 10:07:55 54° NE 10:17:43 10° SE daylight
28 Sep - 12:04:08 10° WNW 12:12:55 34° SW 12:21:49 10° SSE daylight
28 Sep - 20:48:04 10° S 20:54:53 22° SE 21:01:32 10° E visible
28 Sep - 22:50:29 10° SW 22:59:53 75° NW 23:09:09 10° NE night (unlit)
29 Sep - 01:01:28 10° WNW 01:05:08 13° NW 01:08:50 10° NNW night (unlit)
29 Sep - 09:36:44 10° NNW 09:46:15 50° NE 09:55:57 10° ESE daylight
29 Sep - 11:42:17 10° WNW 11:51:15 37° SW 12:00:21 10° SSE daylight
29 Sep - 20:26:45 10° S 20:33:13 20° SE 20:39:32 10° E visible
29 Sep - 22:28:50 10° SW 22:38:17 80° NW 22:47:35 10° NE visible
30 Sep - 00:39:04 10° WNW 00:43:28 14° NW 00:47:52 10° NNW night (unlit)
30 Sep - 09:15:13 10° NNW 09:24:36 47° NE 09:34:09 10° ESE daylight
30 Sep - 11:20:28 10° WNW 11:29:35 40° SW 11:38:51 10° SSE daylight
30 Sep - 20:05:27 10° S 20:11:32 18° SE 20:17:29 10° E visible
30 Sep - 22:07:10 10° SW 22:16:41 86° NW 22:26:00 10° NE visible
01 Oct - 00:16:47 10° W 00:21:47 15° NW 00:26:47 10° NNW night (unlit)
01 Oct - 08:53:43 10° NNW 09:02:57 44° NE 09:12:21 10° ESE daylight
01 Oct - 10:58:39 10° WNW 11:07:55 42° SW 11:17:21 10° SSE daylight
01 Oct - 19:44:12 10° S 19:49:51 17° SE 19:55:24 10° E visible
01 Oct - 21:45:32 10° SW 21:55:04 89° SE 22:04:23 10° NE visible
01 Oct - 23:54:35 10° W 00:00:07 17° NW 00:05:38 10° N night (unlit)
02 Oct - 08:32:14 10° NNW 08:41:17 41° NE 08:50:32 10° ESE daylight
02 Oct - 10:36:53 10° WNW 10:46:15 45° SW 10:55:49 10° SSE daylight
02 Oct - 19:23:00 10° SSE 19:28:10 16° SE 19:33:14 10° ESE visible
02 Oct - 21:23:54 10° SW 21:33:28 84° SE 21:42:47 10° NE visible
02 Oct - 23:32:28 10° W 23:38:27 19° NW 23:44:25 10° N night (unlit)
